This is the latest recevied weather packets stored in our database for station/object K4KMJ. If no packets are shown the sender has not sent any weather packets the latest 10 day(s).
| Time | Temp. | Humidity | Pressure | Rain* | Wind** | Luminosity | Snow |
|---|---|---|---|---|---|---|---|
| 1788542197 | 32.78° C | 75% | 1017.9 hPa | 0 mm | - | 172 W/m² | - |
| 1788541892 | 33.33° C | 74% | 1018 hPa | 0 mm | - | 456 W/m² | - |
| 1788541588 | 33.33° C | 73% | 1018 hPa | 0 mm | - | 507 W/m² | - |
| 1788541283 | 32.78° C | 74% | 1018 hPa | 0 mm | - | 529 W/m² | - |
| 1788540982 | 32.78° C | 73% | 1018.1 hPa | 0 mm | - | 389 W/m² | - |
| 1788540676 | 33.33° C | 73% | 1018.3 hPa | 0 mm | - | 481 W/m² | - |
| 1788540371 | 32.78° C | 73% | 1018.1 hPa | 0 mm | - | 625 W/m² | - |
| 1788540066 | 32.22° C | 75% | 1018.1 hPa | 0 mm | - | 548 W/m² | - |
| 1788539778 | 32.78° C | 74% | 1018 hPa | 0 mm | - | 645 W/m² | - |
| 1788539456 | 33.33° C | 75% | 1018 hPa | 0 mm | - | 696 W/m² | - |
| 1788539150 | 32.78° C | 77% | 1018.2 hPa | 0 mm | - | 658 W/m² | - |
| 1788538846 | 32.78° C | 77% | 1018.3 hPa | 0 mm | - | 625 W/m² | - |
| 1788538540 | 32.22° C | 77% | 1018.5 hPa | 0 mm | - | 735 W/m² | - |
| 1788538236 | 33.33° C | 76% | 1018.3 hPa | 0 mm | - | 165 W/m² | - |
| 1788537931 | 33.33° C | 76% | 1018.5 hPa | 0 mm | - | 605 W/m² | - |
| 1788537627 | 32.78° C | 76% | 1018.4 hPa | 0 mm | - | 636 W/m² | - |
| 1788537321 | 32.78° C | 77% | 1018.4 hPa | 0 mm | - | 636 W/m² | - |
| 1788537021 | 32.78° C | 77% | 1018.5 hPa | 0 mm | - | 608 W/m² | - |
| 1788536715 | 32.78° C | 77% | 1018.5 hPa | 0 mm | - | 618 W/m² | - |
| 1788536410 | 32.22° C | 78% | 1018.5 hPa | 0 mm | - | 627 W/m² | - |
| 1788536109 | 32.78° C | 78% | 1018.4 hPa | 0 mm | - | 591 W/m² | - |
| 1788535806 | 32.22° C | 78% | 1018.4 hPa | 0 mm | - | 598 W/m² | - |
| 1788535501 | 32.22° C | 79% | 1018.4 hPa | 0 mm | - | 596 W/m² | - |
| 1788535220 | 32.78° C | 79% | 1018.5 hPa | 0 mm | - | 594 W/m² | - |
| 1788534891 | 32.22° C | 80% | 1018.4 hPa | 0 mm | - | 606 W/m² | - |
* Rain latest hour (hover to see other rain measurements)
** Current wind speed in m/s (hover to see current wind gust speed)